Find Hylas 4

NORAD ID: 43272 Int'l Des: 2018-033 Owner: AVANTI Country: UK operational
HEOCIRCULARGSOGEO

Live-Position

3D-Globus wird geladen...

Über Hylas 4

Beschreibung wird geladen...

Nächste Überflüge

Passes for default location (London). Set your location on the main map for personalized predictions.

Höhenverlauf

Loading altitude history...

Zweizeiliger Elementsatz

1 43272U 18033B 26104.65120976 -.00000229 00000-0 00000+0 0 9995
2 43272 0.0463 67.1140 0001669 353.5859 342.9757 1.00274766 29429
Epoch: 14. Apr. 2026 • Age: 16 hours

Aktueller Status

Höhe 35790.0 km
Geschwindigkeit 3.07 km/s
Subsatellitenpunkt 0.01°N, 33.6°W
Startdatum 5. Apr. 2018
Alter 8 years
Typ other

Technische Details

Klassifizierung Payload
Masse 4050.00 kg
Trockenmasse 2000.00 kg
Gesamtmasse 4050.00 kg
Länge 3.00 m
Durchmesser 3.10 m
Spannweite 22.00 m
Form Box + 2 pan
Hersteller OATKD
Bus-Typ Geostar-3
Phasenstatus In Orbit
Besitzer/Staat AVANTI/UK

Most Searched